GFSFLT2_2pvu_pres_000.txt.gz
Presure
218 229 237 138 254 351 140 502 534 527 520 508 504 508 505 488 462 444 447 462 459 447 435 372 509 505 85
239 164 298 330 354 492 590 612 603 594 574 550 546 536 506 492 478 457 451 434 447 474 472 207 307 504 559
271 332 332 510 616 535 576 599 596 586 582 552 544 546 506 494 468 438 448 437 414 380 384 391 451 489 516
337 380 625 568 469 464 472 483 486 495 494 494 491 492 457 459 426 380 364 359 362 365 371 379 379 379 399
474 522 483 450 438 451 430 454 421 424 395 406 375 363 363 359 357 352 348 347 353 359 363 368 370 371 376
505 476 422 417 443 427 365 453 448 470 403 347 333 333 332 337 346 357 359 359 363 363 355 355 355 356 361
481 411 402 363 373 398 384 348 331 328 327 340 341 344 344 339 343 360 360 357 368 362 348 347 352 356 367
404 373 359 375 348 340 316 325 327 328 327 327 325 325 332 343 360 361 359 374 358 342 354 370 371 368 377
358 354 362 338 324 330 327 323 325 324 311 309 309 321 334 347 355 358 367 365 359 354 363 361 363 360 369
348 355 329 334 326 325 313 310 310 320 309 303 304 327 342 352 355 354 366 430 343 358 346 357 372 358 374
341 326 324 317 318 313 312 305 300 306 305 301 289 343 353 369 360 368 451 346 353 311 327 359 394 364 382
325 314 317 318 306 293 296 291 295 303 299 294 292 342 368 363 443 459 342 346 348 312 339 367 405 371 439
315 319 315 312 306 296 297 296 297 302 301 295 335 354 375 379 384 366 340 336 342 318 351 393 388 393 447
314 305 298 303 305 302 298 299 292 296 303 296 319 357 384 368 388 380 331 328 303 358 363 414 369 443 452
300 298 299 299 301 304 294 294 292 295 294 295 311 352 376 369 398 342 325 347 298 360 382 406 371 405 431
288 288 290 281 288 295 293 301 289 292 284 295 305 336 371 353 360 369 368 344 374 353 381 397 365 376 381
289 293 291 279 285 276 290 302 293 286 289 285 286 323 375 352 337 338 283 303 335 366 377 387 383 368 382

GFSFLT2_2pvu_pres_003.txt.gz
Presure
250 211 211 226 232 71 317 348 360 550 530 506 480 573 626 628 604 587 564 535 505 493 502 501 493 488 501
193 216 226 245 315 341 469 519 503 87 467 445 201 505 522 533 545 554 554 546 537 509 497 482 469 453 445
224 235 271 333 382 518 504 460 448 463 397 427 312 391 439 443 449 462 469 467 478 490 486 465 432 420 428
247 324 339 521 511 473 435 447 384 425 460 459 413 395 366 352 349 351 355 362 376 413 412 421 428 435 438
326 385 535 498 436 406 378 401 375 369 377 333 338 347 348 353 346 340 340 347 340 339 344 354 360 363 367
490 531 490 420 381 361 380 354 340 331 328 337 331 327 334 333 330 336 340 353 352 358 354 353 356 359 363
542 468 405 377 353 346 338 341 357 332 317 323 318 321 314 310 329 338 344 363 369 366 366 365 362 357 355
450 398 379 360 341 330 329 336 334 323 306 309 315 317 312 310 327 349 366 376 365 368 369 368 350 335 336
390 381 370 350 331 319 325 323 317 323 307 305 305 309 306 298 347 380 373 367 365 372 451 349 354 360 361
378 368 350 334 311 327 319 310 304 304 304 301 302 294 306 319 380 368 384 432 442 355 341 345 327 330 347
363 340 323 328 329 328 316 305 304 306 300 298 297 299 308 383 359 385 371 352 359 351 346 343 329 343 359
334 318 327 322 318 310 311 307 299 299 302 301 296 295 329 375 358 385 380 367 350 327 343 354 348 408 422
314 324 312 303 303 307 307 310 299 295 301 299 287 302 338 356 370 360 332 327 328 333 361 403 423 368 427
312 302 283 291 290 283 285 296 302 303 300 297 284 304 337 360 355 355 318 313 350 299 386 410 366 390 410
295 295 293 294 288 280 285 279 294 303 302 291 286 301 335 367 349 343 328 343 341 369 382 381 367 384 401
305 302 306 291 315 303 292 287 282 298 303 288 288 304 335 373 341 348 324 310 361 374 380 365 373 380 384
450 437 389 366 366 298 298 265 278 293 303 288 290 307 344 378 343 324 282 292 323 378 381 379 377 379 380

GFSFLT2_2pvu_pres_006.txt.gz
Presure
219 269 245 264 201 225 152 122 249 294 342 483 522 486 471 471 515 419 408 438 499 539 589 614 608 587 559
270 213 214 213 220 233 255 260 349 516 506 448 449 427 450 477 479 432 434 374 378 405 492 503 561 569 558
214 201 170 226 241 257 346 529 504 477 438 398 392 381 376 354 344 345 342 344 343 344 356 370 391 487 548
211 223 236 246 305 458 520 475 434 412 376 361 369 357 336 331 329 324 329 340 350 352 359 365 356 367 414
230 240 251 342 576 484 445 403 382 376 339 340 360 340 326 321 320 316 316 314 323 336 344 356 368 368 355
250 333 463 538 448 413 391 373 356 357 334 345 343 326 316 309 318 316 312 315 310 348 356 354 369 369 366
344 522 498 426 402 376 376 355 346 337 329 323 313 318 317 311 310 311 315 316 308 391 380 380 374 369 370
474 467 414 391 385 364 343 329 325 340 317 308 309 307 304 305 310 307 310 358 381 410 370 369 366 368 371
438 399 379 388 366 337 324 319 318 326 321 313 311 315 303 305 308 304 384 371 390 369 378 400 443 452 436
385 374 378 366 341 332 328 317 314 313 311 306 308 302 304 301 303 324 376 386 384 393 356 355 341 341 342
363 357 343 339 327 330 324 311 298 304 305 302 298 305 294 297 293 344 371 371 364 346 334 334 342 352 361
357 349 350 333 320 311 297 295 286 278 293 297 300 303 297 288 304 360 362 367 346 327 325 318 363 398 434
318 312 310 313 305 305 304 296 285 286 281 288 298 301 289 289 316 375 351 350 360 326 320 371 391 418 363
315 318 316 317 307 309 305 302 309 291 272 271 297 297 288 291 319 368 361 340 313 346 365 378 382 359 371
360 263 253 330 323 319 319 313 305 314 287 276 296 295 293 303 339 371 372 296 298 365 372 379 383 375 385
249 247 325 417 417 419 428 366 367 314 265 276 300 293 294 313 372 368 312 284 290 354 372 379 370 385 381
385 389 390 400 395 396 411 428 357 313 267 267 299 295 302 325 373 342 291 308 304 391 384 369 379 389 379

GFSFLT2_2pvu_pres_009.txt.gz
Presure
150 210 215 225 252 274 168 197 213 220 242 248 257 266 542 468 467 454 444 430 475 481 481 455 417 416 441
212 221 244 244 178 240 217 223 182 254 260 530 525 481 377 429 416 384 373 378 360 383 388 399 386 382 380
237 257 180 243 204 224 236 250 257 395 506 486 440 410 395 387 363 359 356 345 337 342 347 354 350 348 359
176 223 181 220 232 243 251 402 497 468 441 417 387 369 361 346 347 341 328 330 335 337 336 334 333 332 336
258 214 225 236 247 259 530 465 424 422 404 374 355 347 347 337 339 328 320 317 320 323 323 324 327 330 327
229 228 243 253 527 489 426 412 392 397 383 344 347 332 337 325 322 318 320 311 307 312 321 320 324 335 323
234 243 260 502 438 406 389 385 386 371 356 326 337 327 319 309 300 302 310 313 317 323 320 399 394 399 451
246 435 465 418 396 381 376 384 364 352 348 320 335 316 319 308 312 313 307 307 312 313 393 415 389 370 368
452 428 405 391 380 366 355 355 326 336 343 314 315 311 316 306 306 307 307 308 302 327 399 382 379 374 354
382 359 352 343 336 346 360 340 328 321 328 305 311 299 298 307 305 309 307 303 300 357 374 372 336 338 337
350 341 328 319 314 318 318 350 319 308 302 301 296 289 291 289 304 309 304 299 318 378 369 366 331 339 350
335 326 336 365 362 338 323 327 320 305 304 302 295 293 287 286 296 314 299 303 337 381 368 343 342 354 312
338 396 394 402 405 399 257 242 336 325 306 295 298 294 279 285 295 306 295 322 384 374 342 315 343 382 387
398 401 400 267 353 246 417 429 411 412 334 311 307 309 286 284 298 297 302 344 367 320 293 295 332 384 374
367 382 334 314 400 395 401 405 410 419 414 383 307 268 281 290 300 298 321 369 327 286 288 350 395 371 387
371 384 395 394 394 386 394 395 400 422 417 366 294 274 275 299 295 322 377 336 288 369 404 350 362 396 413
373 377 382 380 388 390 391 399 398 424 355 360 276 276 288 295 318 362 341 284 364 376 341 346 363 406 394

GFSFLT2_2pvu_pres_012.txt.gz
Presure
192 185 195 200 129 181 184 231 250 284 185 184 221 247 208 258 268 491 489 466 457 456 450 374 438 464 459
187 193 154 140 156 187 238 257 175 200 240 242 242 264 281 481 458 435 423 416 406 392 397 390 416 390 379
180 170 157 222 231 254 179 217 240 243 251 260 375 462 443 427 412 386 380 373 366 365 358 369 355 350 339
207 214 226 241 186 214 227 235 250 255 356 443 433 416 409 395 368 358 352 354 363 353 341 333 332 334 335
219 230 220 215 225 236 241 251 265 441 429 397 397 398 378 357 344 342 343 335 336 333 329 320 321 323 322
247 271 236 226 236 247 253 426 391 403 402 381 410 374 356 343 332 327 332 323 317 313 317 314 313 305 313
269 215 240 241 251 284 389 367 353 365 385 372 376 350 342 335 333 323 323 321 311 313 314 313 309 314 310
229 240 247 257 410 391 368 346 332 329 334 363 351 337 341 336 325 319 318 316 315 314 314 314 312 305 344
243 253 342 394 380 365 346 337 327 319 328 319 355 342 338 321 312 308 303 307 308 312 317 313 302 326 385
257 396 378 362 349 348 414 414 411 400 394 346 324 341 331 318 313 295 288 294 295 308 315 299 306 344 391
381 360 362 393 380 373 375 420 431 421 377 357 292 251 323 309 314 307 286 287 296 307 303 305 337 394 391
350 377 364 355 357 376 403 409 362 426 317 250 248 247 238 317 306 314 287 286 295 304 301 330 390 370 328
354 350 337 345 398 400 396 409 402 404 411 421 433 437 312 315 306 311 291 296 301 301 323 379 336 300 301
339 325 327 396 396 392 390 396 394 389 405 417 430 424 344 327 311 311 295 302 306 327 369 332 303 320 395
328 324 397 402 402 391 408 394 403 400 393 408 426 370 348 306 289 282 303 306 322 356 324 294 415 365 349
320 375 406 412 380 385 401 421 412 407 405 380 362 356 321 275 278 304 310 356 348 292 292 356 340 346 353
355 386 423 422 391 409 426 438 429 424 352 364 313 284 274 283 302 356 311 330 297 372 386 397 333 333 392

GFSFLT2_2pvu_pres_015.txt.gz
Presure
218 232 233 243 241 241 242 236 195 176 162 144 189 220 237 297 234 202 212 248 276 392 488 248 481 487 492
214 221 226 240 269 259 197 194 154 202 207 218 234 289 202 208 241 263 290 449 442 433 438 432 232 420 419
224 219 237 258 228 190 150 205 212 223 237 275 257 215 247 269 321 423 417 412 407 404 396 385 382 380 375
224 241 219 198 176 208 213 225 234 283 255 213 260 269 338 392 410 408 412 392 378 371 357 354 355 378 365
206 196 201 213 217 229 245 294 224 215 258 264 372 386 375 365 355 416 382 361 355 349 343 345 344 341 344
201 212 220 231 263 289 240 227 257 266 403 390 383 366 362 352 340 328 368 349 340 332 331 333 325 326 324
226 246 287 269 209 240 257 269 390 380 380 364 350 342 340 335 332 319 356 339 337 330 327 324 321 318 314
275 266 234 243 256 267 376 373 382 383 398 384 380 430 408 384 351 342 326 339 337 327 320 314 313 315 313
253 241 252 265 301 387 382 371 363 361 381 425 429 443 436 406 391 360 326 256 330 320 310 305 301 302 306
244 261 291 396 380 372 357 357 359 409 412 417 425 423 432 415 358 380 242 252 315 318 304 294 293 295 307
326 398 374 357 363 350 353 420 413 414 402 403 416 405 412 423 263 236 240 345 314 307 306 294 294 301 306
398 367 354 351 344 340 407 422 421 399 404 405 414 401 406 418 412 411 347 322 305 304 303 293 298 308 305
362 349 346 336 347 407 431 409 398 405 420 419 422 400 415 424 427 433 337 314 289 307 302 293 307 310 327
338 338 333 378 406 445 421 407 414 413 432 429 411 421 410 415 407 400 326 315 313 289 292 305 318 341 361
333 325 339 406 454 424 422 430 439 441 425 415 377 378 365 366 321 312 303 279 289 305 311 345 362 291 325
320 266 400 464 420 420 416 419 377 358 361 360 356 334 325 300 282 278 293 310 332 350 345 295 322 349 362
255 385 408 397 396 392 362 362 360 316 308 301 291 285 284 293 313 347 350 341 353 344 351 342 355 360 371

GFSFLT2_2pvu_pres_018.txt.gz
Presure
243 244 252 253 254 260 266 269 270 255 236 234 230 223 244 246 196 203 211 216 221 226 231 239 278 279 261
252 254 255 269 275 277 274 276 279 271 253 223 236 217 203 207 216 220 227 237 264 281 273 263 240 232 240
266 255 249 245 242 245 245 241 236 233 225 202 206 213 220 232 249 281 273 260 251 231 239 309 431 438 432
233 230 227 225 225 222 209 211 200 195 211 220 254 280 272 261 244 234 315 402 405 380 378 370 379 406 391
210 210 203 198 202 205 209 166 265 271 260 250 248 235 223 361 400 403 437 414 362 354 356 354 341 379 368
197 202 213 270 180 274 251 244 236 254 276 406 395 386 378 376 369 374 382 398 431 347 334 339 325 360 352
236 270 267 257 242 234 244 260 343 406 392 381 370 359 355 360 384 436 445 446 401 405 354 331 323 345 345
254 249 238 237 248 263 321 373 390 378 369 370 354 402 396 410 413 421 446 457 464 424 357 336 333 334 338
233 231 240 263 309 325 399 383 367 358 354 420 446 442 433 403 398 417 432 441 457 435 353 336 330 259 327
233 260 271 319 369 393 378 361 349 386 431 470 455 419 404 399 393 402 409 426 443 425 348 336 252 258 312
263 297 329 369 383 367 357 343 436 469 462 439 432 425 421 421 408 398 404 423 446 413 339 282 242 322 305
324 348 400 379 360 350 334 452 445 445 453 456 456 448 438 422 404 407 427 442 418 399 320 324 334 314 298
421 393 367 355 343 333 457 424 430 443 448 449 434 417 425 426 422 422 423 430 391 330 315 323 327 303 302
390 354 344 334 335 419 408 407 354 366 370 362 363 360 366 358 367 373 367 345 330 314 313 311 305 310 309
350 336 324 326 381 394 371 362 340 313 310 306 302 294 291 290 300 298 304 309 314 300 302 293 297 304 309
331 315 323 373 382 354 330 312 300 295 287 283 280 293 333 346 346 343 340 337 333 338 346 343 362 369 369
324 325 370 372 335 316 304 293 286 280 269 265 330 323 312 309 340 327 333 343 292 370 379 371 365 370 372

GFSFLT2_2pvu_pres_021.txt.gz
Presure
230 231 237 249 280 274 262 257 247 244 241 242 241 243 244 245 248 252 256 262 266 271 269 258 241 248 221
322 314 270 260 247 228 225 236 228 222 219 217 216 216 216 219 221 224 228 229 223 216 218 214 218 218 231
248 238 226 221 218 209 204 203 202 203 203 198 199 204 216 220 216 253 234 237 239 238 234 250 251 254 265
225 228 209 202 197 192 192 202 236 230 255 249 248 250 255 261 258 285 332 336 410 405 399 256 254 315 319
200 191 194 195 207 260 265 247 241 242 241 240 254 274 337 422 405 398 393 390 386 382 376 368 365 368 380
194 203 260 278 254 236 154 236 193 247 258 269 339 418 400 385 373 367 364 370 447 453 450 449 450 413 375
258 284 248 230 234 239 242 253 261 272 326 372 419 386 363 352 354 425 444 461 456 444 438 436 436 467 399
206 228 227 235 238 251 261 267 300 348 422 402 373 348 410 484 476 461 453 444 440 430 419 420 438 444 439
228 227 235 248 260 264 272 313 415 409 376 364 423 443 459 452 450 441 443 441 435 431 421 417 408 433 439
227 246 256 261 267 294 349 431 406 369 347 444 436 408 465 453 454 455 447 444 443 433 405 404 409 430 428
248 257 265 290 351 385 421 390 357 355 422 367 380 377 382 389 419 422 426 425 422 411 433 414 417 431 418
278 348 373 372 417 402 375 344 386 414 371 355 328 315 317 336 361 374 382 387 392 400 426 401 409 415 390
508 399 419 417 386 360 330 389 382 353 333 310 306 291 291 291 289 297 316 363 357 371 379 388 399 394 324
450 396 350 368 346 324 379 358 330 319 310 295 286 286 344 350 346 351 303 284 301 330 326 324 320 315 320
366 371 349 327 329 372 355 323 306 295 293 291 281 317 322 312 327 340 347 340 353 320 297 290 286 302 304
354 325 328 322 362 238 324 308 293 289 284 277 320 317 330 335 295 328 348 350 332 329 325 341 380 356 338
297 331 286 316 214 329 308 295 289 281 273 322 319 325 315 311 329 369 353 342 346 357 367 371 371 381 378

GFSFLT2_2pvu_pres_024.txt.gz
Presure
236 241 230 232 214 225 242 243 230 231 221 219 213 205 203 203 204 205 206 208 214 217 218 222 227 231 239
242 239 229 209 226 231 238 219 232 224 207 201 199 196 196 204 206 246 240 245 250 250 251 215 231 219 223
241 225 215 228 236 242 227 220 196 194 195 198 226 248 245 243 240 240 244 232 188 257 260 258 263 268 269
215 233 240 253 225 195 194 193 206 229 245 240 237 237 240 250 252 258 287 353 445 437 424 407 395 387 385
232 236 232 199 193 195 256 252 234 232 230 234 237 251 260 273 282 327 440 424 405 389 390 417 434 447 427
234 211 191 193 253 240 227 215 228 230 232 245 253 260 283 306 428 413 394 389 445 472 468 468 457 484 477
193 200 241 252 230 228 228 236 235 246 250 254 274 291 392 411 381 383 452 386 418 505 497 480 463 447 447
243 234 228 229 229 237 238 242 244 257 275 296 357 428 388 360 418 406 396 393 411 460 458 454 440 425 416
229 230 225 235 238 242 247 257 275 293 404 446 407 368 398 398 369 349 319 317 328 431 443 429 418 423 424
224 236 238 238 254 274 295 361 361 353 414 390 349 396 363 338 324 315 304 298 304 320 390 436 433 425 414
235 239 247 291 334 417 486 442 405 386 375 341 365 346 333 305 303 297 294 295 318 297 328 368 405 422 425
267 359 376 357 485 431 384 379 376 353 371 354 330 314 303 291 290 289 330 344 348 358 299 325 347 377 395
355 335 461 385 379 378 369 344 339 382 350 325 307 297 293 287 294 327 328 318 337 334 353 305 316 329 342
428 415 399 378 357 334 323 336 362 344 310 308 294 289 295 296 327 321 327 303 330 355 330 347 333 302 324
343 338 327 316 350 325 300 358 329 262 303 296 289 285 329 328 322 348 336 287 355 347 361 329 346 352 315
343 340 344 339 338 326 382 349 233 303 291 281 287 317 318 339 367 380 372 378 346 360 379 359 337 356 381
346 340 331 343 325 345 365 214 305 298 289 288 323 324 344 358 388 334 346 341 331 329 337 366 376 394 376

GFSFLT2_2pvu_pres_027.txt.gz
Presure
187 224 232 233 239 238 245 250 240 227 226 240 240 243 217 218 228 206 198 195 195 197 200 203 229 229 241
223 219 225 234 230 243 239 231 214 226 234 235 229 212 201 199 196 200 241 240 236 240 237 233 233 233 240
234 242 234 242 250 228 221 217 227 238 238 202 202 214 250 240 231 230 238 239 229 153 265 271 288 280 246
230 230 248 253 239 214 226 235 194 198 232 251 235 233 242 239 246 215 258 270 279 286 293 359 422 436 409
234 246 233 215 206 198 187 192 253 227 226 237 242 247 249 248 255 272 282 290 302 380 462 409 384 412 429
254 229 228 190 216 254 248 219 233 225 240 239 247 241 254 266 278 290 307 386 452 416 373 400 390 376 428
223 208 208 233 214 224 231 224 229 236 243 238 253 263 275 287 318 354 437 421 379 385 362 349 337 329 327
238 235 215 236 228 164 230 237 239 242 254 258 278 303 343 394 418 402 386 403 361 348 331 324 315 309 310
215 225 171 215 229 238 239 243 245 266 293 484 441 434 393 370 376 387 371 345 331 323 316 310 307 315 337
160 226 228 229 239 243 248 264 369 357 362 368 374 380 358 356 358 345 329 321 312 305 340 300 351 365 338
231 228 236 242 250 278 374 341 327 396 392 376 348 338 363 333 322 292 309 308 313 307 335 336 337 352 359
235 240 247 258 361 351 319 302 379 367 353 315 369 344 323 309 300 304 304 337 331 331 327 337 319 358 353
241 310 384 343 340 340 316 355 359 359 343 363 330 317 216 300 293 293 322 320 322 324 326 348 358 363 343
350 329 355 367 363 362 355 356 349 340 374 334 316 250 303 300 290 330 343 376 379 386 310 331 368 376 376
320 328 361 367 283 353 348 343 329 366 336 318 309 305 314 336 384 387 371 357 367 369 374 373 380 384 378
338 345 366 290 321 326 348 331 342 341 314 300 295 316 330 382 314 320 318 315 316 314 317 320 327 332 347
332 328 264 252 321 357 327 355 349 320 306 297 328 343 354 310 321 310 311 309 310 320 334 348 342 340 325

GFSFLT2_2pvu_pres_030.txt.gz
Presure
226 240 221 221 214 219 190 197 238 234 242 262 248 232 218 216 229 236 233 232 240 218 208 204 244 207 206
223 157 225 217 222 162 242 240 228 242 240 252 221 219 227 225 197 193 193 195 240 227 223 229 230 228 231
202 175 216 225 249 204 238 215 236 240 248 224 212 224 247 252 244 219 220 224 216 247 241 253 259 264 252
186 201 240 235 232 251 239 243 246 232 211 228 244 227 213 223 219 220 246 249 249 252 258 272 288 299 314
198 242 237 240 249 261 248 246 227 244 244 221 220 223 226 233 198 252 250 256 269 274 290 302 384 375 364
232 236 244 246 269 247 229 206 229 232 211 224 176 237 237 252 252 259 270 277 301 476 390 334 428 408 399
267 253 269 267 237 225 237 239 210 228 182 230 240 242 249 255 266 267 342 479 344 433 404 390 386 381 370
260 259 236 232 242 231 214 189 234 240 235 240 248 248 258 272 310 385 331 400 394 380 366 357 348 339 332
235 238 244 239 179 226 227 235 233 250 244 248 258 275 413 370 339 396 385 366 333 320 340 329 323 318 312
237 198 218 218 229 241 248 240 242 250 260 288 398 397 369 370 344 324 367 303 343 335 323 316 312 305 343
210 131 218 246 255 215 243 253 260 349 362 369 360 359 358 345 363 357 340 333 309 320 310 311 331 350 324
208 253 232 241 245 253 255 360 345 351 368 364 354 350 354 349 333 328 322 307 311 322 341 353 366 364 322
238 251 258 254 347 350 337 335 358 367 365 362 341 362 350 329 313 311 305 303 345 393 377 363 360 361 383
279 366 352 342 330 327 346 372 360 300 328 349 380 346 324 314 309 300 297 382 322 328 319 324 323 321 335
351 339 331 322 328 341 333 340 258 334 340 343 353 323 316 313 297 388 353 320 308 302 318 319 336 351 325
331 322 317 326 316 344 347 335 301 309 331 366 324 310 306 312 377 325 316 305 307 316 302 314 314 308 322
320 307 324 321 304 336 344 329 309 304 329 345 307 299 326 351 333 302 294 300 305 307 297 296 289 303 309

GFSFLT2_2pvu_pres_033.txt.gz
Presure
192 210 220 212 220 197 220 176 228 182 216 225 198 199 158 227 251 253 254 240 237 220 207 217 219 223 229
199 218 217 147 153 229 230 237 222 224 214 228 230 221 258 243 251 264 229 237 197 247 243 239 238 243 232
155 166 234 216 196 221 213 170 213 217 231 231 246 259 248 239 249 216 200 239 237 213 212 223 220 222 244
195 174 203 201 184 185 225 223 226 224 244 255 253 239 254 266 238 236 243 214 220 229 224 230 240 246 260
154 217 203 176 224 233 227 242 244 250 248 260 258 267 236 250 252 228 222 230 231 226 242 259 263 265 266
216 215 225 229 234 240 241 256 249 266 302 277 261 237 250 244 217 224 230 248 244 253 261 265 278 272 455
234 233 238 245 243 262 262 286 276 259 244 241 239 211 223 239 256 247 249 261 263 268 283 352 417 387 403
255 261 266 273 275 259 216 218 204 202 245 246 247 250 245 247 262 268 262 296 390 375 389 370 355 336 343
241 236 234 239 206 241 252 246 252 128 261 267 260 254 259 266 278 373 387 388 382 391 379 368 356 349 338
232 234 237 240 242 249 240 246 251 249 254 252 258 281 358 355 364 383 382 378 390 367 352 343 333 322 312
217 208 173 240 238 247 244 255 264 307 360 365 350 346 346 366 358 366 360 367 358 340 332 321 313 335 388
233 224 234 243 251 347 385 371 365 357 349 342 340 349 353 343 316 336 371 354 334 322 310 322 331 334 334
297 298 297 401 382 366 355 344 337 331 329 348 343 338 331 261 327 324 341 321 324 305 380 331 324 326 327
277 413 391 372 359 342 333 324 325 323 313 355 343 329 255 315 351 330 321 304 303 388 318 315 321 326 308
354 379 373 353 338 324 310 308 327 316 309 359 330 302 310 344 332 323 302 345 360 318 313 317 317 305 315
361 341 319 338 318 306 305 324 324 311 337 387 309 306 348 327 320 337 377 329 315 318 304 288 288 287 297
356 334 316 309 308 312 319 319 317 332 356 334 302 350 315 306 327 325 305 306 309 282 284 279 280 281 280

GFSFLT2_2pvu_pres_036.txt.gz
Presure
238 215 215 201 208 200 175 207 196 214 170 219 221 195 186 191 222 234 229 222 233 233 204 261 241 240 251
190 203 197 198 123 187 165 207 172 219 186 228 148 226 231 164 239 229 243 237 242 229 243 262 237 259 277
215 127 211 214 214 232 182 219 193 180 222 221 238 234 241 227 236 234 242 247 240 238 265 275 274 245 221
231 242 231 234 222 133 224 239 234 236 230 218 231 232 225 241 241 244 242 284 259 300 270 264 243 249 253
228 227 229 223 224 224 218 167 218 233 224 229 232 237 246 256 259 274 253 242 251 252 251 236 231 217 218
246 236 230 222 232 203 228 226 231 232 225 241 247 228 264 282 300 249 225 215 216 210 213 217 224 261 247
260 257 249 236 235 247 251 246 247 243 242 247 270 290 272 254 236 223 244 255 258 245 262 258 259 286 322
245 246 251 255 258 258 258 267 273 283 280 265 246 248 221 195 250 266 268 259 275 330 347 382 395 389 384
258 260 257 250 250 248 239 235 235 152 251 244 238 257 259 265 278 276 304 365 375 362 391 383 373 376 373
226 226 235 238 239 149 176 161 242 243 238 258 282 293 302 323 368 366 362 364 370 375 359 355 346 353 337
229 228 230 230 208 229 204 249 280 314 306 296 370 365 357 344 337 344 361 355 359 362 342 367 348 329 317
223 214 186 295 310 251 284 282 355 377 364 354 341 338 333 329 316 336 355 355 363 283 357 343 329 316 341
166 335 148 271 266 306 348 367 376 355 342 328 320 323 330 317 306 344 339 327 331 356 335 316 344 342 317
152 278 263 277 329 339 368 345 323 316 317 313 313 330 326 308 327 388 319 312 347 330 313 368 327 318 309
208 266 292 332 348 374 354 339 321 313 317 325 328 324 321 299 389 318 311 348 312 319 367 319 329 307 299
265 312 337 365 379 363 344 331 316 315 322 334 344 357 361 397 315 318 351 303 345 355 310 297 295 283 287
321 358 365 317 305 366 353 326 321 326 331 344 358 299 334 310 326 347 334 356 304 318 285 289 284 280 274